Flag for Liberia

Past Weather in Kakata, Liberia — Yesterday and Last 2 Weeks

Now
79 °F

Partly sunny.


Feels Like: 82 °F
Forecast: 77 / 73 °F
Wind: 8 mph from Southwest

Location: Roberts Field

Current Time: Jul 14, 2020 at 11:18:24 am

Latest Report: Jul 14, 2020 at 11:00 am


Visibility: N/A

Pressure: 29.92 "Hg

Humidity: 84%

Dew Point: 73 °F

Location of KakataLocation

Past Weather in Kakata — Graph

°F

Kakata Temperature Yesterday

Maximum temperature yesterday: 81 °F (at 9:30 am)
Minimum temperature yesterday: 75 °F (at 4:00 am)
Average temperature yesterday: 78 °F

High & Low Weather Summary for the Past Weeks

 TemperatureHumidityPressure
High88 °F (Jul 6, 1:00 pm)100% (Jun 30, 4:30 am)29.98 "Hg (Jun 30, 4:30 am)
Low75 °F (Jun 30, 4:30 am)66% (Jul 6, 1:00 pm)29.80 "Hg (Jul 1, 5:30 pm)
Average79 °F87%29.91 "Hg
* Reported Jun 29 10:00 am — Jul 14 10:00 am, Kakata. Weather by CustomWeather, © 2020

Note: Actual official high and low records may vary slightly from our data, if they occured in-between our weather recording intervals... More about our weather records

Kakata Weather History for the Previous 24 Hours

Scroll right to see more
 ConditionsComfort  
Time TempWeatherWind HumidityBarometerVisibility
10:00 am
Tue, Jul 14
79 °FPartly sunny.6 mph84%29.92 "HgN/A
9:30 am79 °FPartly sunny.3 mph84%29.92 "HgN/A
9:00 am77 °FPartly sunny.7 mph83%29.92 "HgN/A
8:30 am77 °FPartly sunny.7 mph83%29.92 "HgN/A
8:00 am77 °FPartly sunny.6 mph83%29.92 "HgN/A
7:30 am75 °FPassing clouds.5 mph94%29.92 "HgN/A
7:00 am75 °FPassing clouds.5 mph94%29.92 "HgN/A
6:30 am75 °FPassing clouds.5 mph94%29.92 "HgN/A
6:00 am75 °FPassing clouds.5 mph100%29.92 "HgN/A
5:30 am75 °FPassing clouds.3 mph100%29.92 "Hg5 mi
5:00 am75 °FPassing clouds.5 mph100%29.92 "Hg5 mi
10:00 pm
Mon, Jul 13
77 °FPassing clouds.5 mph94%29.98 "Hg5 mi
9:30 pm77 °FPassing clouds.No wind94%29.95 "HgN/A
9:00 pm77 °FPassing clouds.3 mph94%29.95 "HgN/A
8:30 pm77 °FPassing clouds.5 mph94%29.95 "Hg6 mi
8:00 pm77 °FPassing clouds.5 mph94%29.92 "Hg5 mi
7:30 pm77 °FDrizzle. Partly sunny.8 mph94%29.92 "Hg4 mi
7:00 pm77 °FDrizzle. Partly sunny.7 mph94%29.92 "Hg4 mi
6:30 pm79 °FPartly sunny.7 mph89%29.92 "HgN/A
6:00 pm79 °FPartly sunny.9 mph94%29.89 "HgN/A
5:30 pm79 °FPartly sunny.8 mph94%29.89 "HgN/A
5:00 pm81 °FPartly sunny.10 mph84%29.89 "HgN/A
4:30 pm81 °FPartly sunny.7 mph84%29.89 "HgN/A
4:00 pm81 °FPartly sunny.7 mph84%29.89 "HgN/A
3:30 pm81 °FPartly sunny.7 mph84%29.89 "HgN/A
3:00 pm81 °FPartly sunny.10 mph84%29.92 "HgN/A
2:30 pm81 °FPartly sunny.9 mph84%29.92 "HgN/A
2:00 pm81 °FPartly sunny.8 mph84%29.92 "HgN/A
1:30 pm81 °FPartly sunny.7 mph84%29.95 "HgN/A
1:00 pm81 °FPartly sunny.9 mph84%29.95 "HgN/A
12:30 pm81 °FPartly sunny.8 mph84%29.95 "HgN/A
12:00 pm79 °FPartly sunny.7 mph89%29.98 "HgN/A
11:30 am79 °FPartly sunny.8 mph89%29.98 "HgN/A
11:00 am79 °FPartly sunny.6 mph94%29.98 "HgN/A
Weather by CustomWeather, © 2020

See weather overview